Location:  
MeteoStar


Sort by weather type Sort by elevation Sort by visibility Sort from west to east north Sort from north to south Alphabetically Sort from strongest wind speed Sort from lowest to highest pressure Sort from highest to lowest dew point temperature Sort coolest temperatures to warmest Sort warm temperatures to coolest
 Metric

Current Observations for United Kingdom sorted from warmest to coolest

Rhyl01:00ZNot Avail.47 39251013.2W 14 41252
Hawarden01:00ZNot Avail.47 40201013.4WSW 7 4432
Scilly; Saint MaryS01:00ZNot Avail.47 41151019.2SW 11 42101
Saint Catherines Point01:00ZNot Avail.46 4281018.2W 12 4052
Isle Of Portland01:00ZNot Avail.46 4381018.7W 15 40173
Mumbles01:00ZNot Avail.46 4391017.7WSW 10 41114
Crosby01:00ZHaze46 4271012.5WSW 18 Gusting to 25 3926
Prestwick Rnas01:00ZClear46 41131008.4WSW 13 4085
Topcliffe Royal Air Force Base 00:50ZMostly Cloudy46 41151010.2WSW 12 4091
Linton-On-Ouse00:50ZMostly Cloudy46 41121010.1WSW 9 4152
Leeming00:50ZMostly Cloudy46 41201009.2WSW 14 40131
Machrihanish01:00ZNot Avail.46 43101008.9WSW 17 3942
West Freugh01:00ZNot Avail.46 43171010.2WSW 11 4136
Valley00:50ZMostly Cloudy46 4391013.1WSW 16 393
Shawbury00:50ZMostly Cloudy46 41171013.2WSW 11 41249
Isle Of Man / Ronaldsway Airport00:50ZMostly Cloudy46 43121011.1W 15 4055
Walney Island01:00ZNot Avail.46 4381011W 14 4049
Blackpool Airport01:00ZNot Avail.46 428W 18 3932
Liverpool Airport 00:50ZMostly Cloudy46 39101013.1SW 7 4285
St Athan Royal Air Force Base00:50ZMostly Cloudy46 43111016.2WSW 11 41164
Manchester Airport00:50ZLight Rain46 39131012.2SW 8 42226
Carlisle01:00ZNot Avail.45 42151009.0N 4591
Keswick01:00ZClear45 42141010.2WNW 7 41265
Sule Skerry01:00ZNot Avail.45 37111000.5WNW 27 Gusting to 40 3652
Leconfield00:50ZMostly Cloudy45 39121010.1SW 13 3919
Boulmer00:50ZClear45 39301006.1WSW 14 3975
Tiree00:50ZMostly Cloudy45 37121007.1W 12 3939
Benbecula00:50ZLight Rain45 41301006.1W 13 3919
Prestwick Airport00:50ZPartly Cloudy45 43301009.1WSW 10 4065
Glasgow Airport00:50ZCloudy45 41301007.1WSW 8 4126
Aberdeen / Dyce00:50ZCloudy45 37301003.2W 6 42213
Pembrey Sands00:50ZMostly Cloudy45 4341016.1W 10 409
Newcastle 00:50ZMostly Cloudy45 41121007.2W 15 38265
London City Airport00:50ZClear45 3941017.1WSW 9 4016
Cardiff-Wales Airport00:50ZCloudy45 43101017.2W 9 40219
Culdrose00:50ZPartly Cloudy45 41111019.2WSW 7 41255
Belfast / Harbour00:50ZPartly Cloudy45 41131011.1SW 7 4116
Castlederg01:00ZShowers44 42191010.9WSW 9 39167
Aberdaron01:00ZNot Avail.44 40151015.2W 21 Gusting to 25 36311
Capel Curig01:00ZNot Avail.44 40141014WSW 18 Gusting to 29 36708
Loftus Samos01:00ZNot Avail.44 40251008.5WSW 15 Gusting to 26 37190
Saint Bees Head01:00ZNot Avail.44 43131010.5W 15 37406
Aultbea01:00ZClear44 40171005W 9 3936
Chivenor01:00ZNot Avail.44 40101018SW 8 3926
Trawscoed01:00ZNot Avail.43 40101015.7S 4 41206
Nottingham Weather Centre01:00ZNot Avail.43 38121013.5WSW 7 39383
Bingley01:00ZClear43 4171010.7W 11 Gusting to 22 37859
Bridlington Mrsc01:00ZNot Avail.43 39251009.5SW 9 3849
Shap01:00ZNot Avail.43 40251010WSW 4 41816
Dundrennan01:00ZNot Avail.43 42101009W 19 Gusting to 26 35374
Strathallan01:00ZNot Avail.43 36201005.9WSW 11 37114
Aboyne01:00ZNot Avail.43 37301003.5W 12 37459
Fair Isle01:00ZClear43 3811996.7W 20 Gusting to 35 34187
Cranwell00:50ZMostly Cloudy43 37171012.2WSW 19 35219
Waddington00:50ZPartly Cloudy43 37151012.2SW 11 37223
Norwich Weather Centre00:50ZClear43 37201013.1SW 9 3845
Lossiemouth00:50ZClear43 39201003.1W 16 3542
Kinloss00:50ZMostly Cloudy43 39301004.1WSW 7 3922
Inverness / Dalcross00:50ZMostly Cloudy43 39301004.1SW 10 3729
Sumburgh Cape 00:50ZLight Rain43 3713995.1WNW 22 3416
Kirkwall Airport00:50ZMostly Cloudy43 3713999.1WNW 16 3568
East Midlands00:50ZPartly Cloudy43 39121013.2SW 13 36308
Leeds And Bradford00:50ZLight Rain43 4181010.4WSW 13 36682
Humberside00:50ZClear43 3981011.2SSW 14 36101
Jersey Airport00:50ZHaze43 4341020.2WSW 5 40275
Bristol / Lulsgate 00:50ZCloudy43 37101016.4SW 8 38620
Birmingham / Airport00:50ZClear43 39131014.3SW 8 38324
Belfast / Aldergrove Airport00:50ZMostly Cloudy43 41131011.2SW 10 37265
Glenanne01:00ZNot Avail.42 40171011.4WSW 8 Gusting to 18 37528
Ballypatrick Forest01:00ZClear42 41111010.2W 11 36511
Portglenone01:00ZNot Avail.42 40101010.2SSE 8 37209
Lough Fea01:00ZNot Avail.42 4181011W 12 35738
Pershore01:00ZNot Avail.42 3991016.0S 7 38104
Shobdon01:00ZNot Avail.42 38191015.5SSW 6 38324
Lake Vyrnwy01:00ZNot Avail.42 38201014WSW 9 371181
Donna Nook01:00ZNot Avail.42 38191011.5SSW 14 3526
Fylingdales01:00ZNot Avail.42 4225WSW 10 36859
Warcop Range01:00ZLight Showers42 4171009.7W 4 40744
Charterhall01:00ZNot Avail.42 36301006.4W 10 36367
Baltasound01:00ZNot Avail.42 3916993.0W 19 Gusting to 29 3349
Mildenhall Royal Air Force Base00:56ZClear42 4261014.2SW 10 3632
Lakenheath Royal Air Force Base00:56ZClear42 37111014.2WSW 12 3532
Tain Range01:00ZClear42 36251003.5WNW 12 3513
Plymouth01:00ZHaze42 4051019.2W 6 38164
Camborne01:00ZClear41 38151019.2S 5 38285
Langdon Bay01:00ZNot Avail.41 4181017.2WSW 7 36383
Church Lawford01:00ZNot Avail.41 3891015.2WSW 7 36351
Sennybridge01:00ZMist41 4051016.5WSW 5 381007
Weybourne01:00ZNot Avail.41 37201013.2SSW 15 3368
Redesdale01:00ZNot Avail.41 38351008WSW 4 38692
Spadeadam01:00ZClear41 4141008.4W 18 Gusting to 28 32935
Eskdalemuir01:00ZNot Avail.41 37201008.5WSW 8 36793
Aviemore01:00ZClear41 37141004.7SW 3 41721
Tulloch Bridge01:00ZNot Avail.41 38301006.7NNW 6 37777
Lerwick01:00ZCloudy41 3716994.7W 15 Gusting to 30 33269
Marham00:50ZNot Avail.41 3791014.2SW 11 3475
Wittering00:50ZClear41 37121013.3SW 13 34275
Coningsby Royal Air Force Base00:50ZMostly Cloudy41 37151012.1SW 10 3522
Aberporth01:00ZNot Avail.41 39111016.2SW 11 34436
Leuchars00:50ZNot Avail.41 37201004.1W 11 3439
Scatsa / Shetland Island00:50ZMostly Cloudy41 3730994.1WNW 12 3472
Edinburgh Airport00:50ZNot Avail.41 39301006.2SW 12 34134
Wick00:50ZMostly Cloudy41 37171001.2W 11 34127
Spadeadam00:50ZMist41 4141007.6W 18 321066
Lydd Airport 00:50ZClear41 3981017.1W 6 379
London / Heathrow Airport00:50ZClear41 3781017.2WSW 6 3778
Farnborough01:00ZNot Avail.41 3741017.2WSW 7 36213
Guernsey Airport00:50ZClear41 39201020.3W 6 37334
Yeovilton00:50ZClear41 37101018.2WSW 5 3875
Herstmonceux01:00ZMist40 3941017.9W 2 40170
High Wicombe Hqstc01:00ZNot Avail.40 3881016.7W 5 36669
Drumalbin01:00ZNot Avail.40 38191007.9W 14 32803
Holbeach01:00ZNot Avail.40 38111013.7SW 15 329
Shoeburyness01:00ZNot Avail.39 37141016.7SW 6 356
Bedford01:00ZNot Avail.39 3691015.4SW 6 35278
Inverbervie01:00ZNot Avail.39 36251004W 8 33439
Altnaharra01:00ZClear39 35201003.2WSW 5 35265
Loch Glascanoch01:00ZClear39 37141005.2WNW 9 33869
Wainfleet01:00ZNot Avail.39 37151012.9SW 13 319
Odiham00:50ZClear39 37101017.3SW 8 33403
Brize Norton00:50ZClear39 3791016.3WSW 5 35288
Wattisham00:50ZClear39 37101015.3WSW 10 32285
Manston01:00ZMist39 3861017.2SW 7 34180
Exeter Airport00:50ZNot Avail.39 37201018.2SSW 6 3598
Stornoway00:50ZMostly Cloudy39 3791004.1W 9 3329
Boscombe Down00:50ZHaze39 3761017.4SSW 6 35406
Lyneham01:00ZNot Avail.39 37101017.2SW 6 35475
Dunkeswell Aerodrome01:00ZNot Avail.38 37101018.7SW 6 33826
Cardinham01:00ZNot Avail.38 3771019.0WSW 7 33656
Kenley01:00ZNot Avail.38 3781017.5SW 7 33557
Larkhill01:00ZNot Avail.38 36111017.9SW 5 34433
Liscombe01:00ZNot Avail.38 382.51018.4WSW 5 341141
Little Rissington01:00ZNot Avail.38 3871016WSW 9 32705
Fairford Royal Air Force Base00:56ZPartly Cloudy38 36101016.5WSW 7 33285
Middle Wallop00:50ZClear37 36141017.3SW 4 34298
Benson00:50ZClear37 36121016.2S 6 32206
London / Gatwick Airport00:50ZNot Avail.37 3741017.2SW 5 33203
Luton Airport 00:50ZClear37 37101015.4SW 7 32524
Glen Ogle01:00ZNot Avail.36 3520W 14 Gusting to 25 271850
Northolt00:50ZClear36 36121016.2W 5 32124
Stansted Airport00:50ZClear36 34201016.3SW 9 29347
Shoreham Airport01:00ZNot Avail.36 3641018W 3 366
Bournemouth Airport01:00ZNot Avail.36 34101018.4W 5 3236
Great Dun Fell01:00ZNot Avail.35 N/A7W 28 Gusting to 34 2778
Cairngorm01:00ZNot Avail.29 2914WNW 43 Gusting to 61 114084